Regional Weather Roundup
Issued by NWS

Home | Current Version | Previous Version | Text Only | Print | Product List | Glossary Off
Versions: 1 2 3 4 5 6 7 8 9 10 11 12 13 14 15 16 17 18 19 20 21 22 23 24 25 26 27 28 29 30 31 32 33 34 35 36 37 38 39 40 41 42 43 44 45 46 47 48 49 50

000
ASUS45 KBOU 172007
RWRCO

WEATHER ROUNDUP FOR COLORADO
NATIONAL WEATHER SERVICE DENVER/BOULDER CO
100 PM MST WED DEC 17 2014

NOTE: "FAIR" INDICATES FEW OR NO CLOUDS BELOW 12000 FEET WITH NO
SIGNIFICANT WEATHER AND/OR OBSTRUCTIONS TO VISIBILITY.

COZ001>005-013-030-031-172100-
...NORTHWEST COLORADO...

CITY           SKY/WX    TMP DP  RH WIND       PRES   REMARKS
CRAIG          CLOUDY    27  24  89 MISG      29.97F
HAYDEN         CLOUDY    27  23  86 CALM      29.95F
MEEKER         FLURRIES  31  27  85 CALM      29.94F
MOUNT WERNER   NOT AVBL
STEAMBOAT SPGS CLOUDY    29  26  87 W3        29.94F
WALDEN         PTSUNNY   25  21  86 CALM      29.92F
$$

COZ006>008-011-172100-
...WEST CENTRAL VALLEYS...

CITY           SKY/WX    TMP DP  RH WIND       PRES   REMARKS
GRAND JUNCTION CLOUDY    37  35  92 NW5       29.95F
MONTROSE       CLOUDY    40  28  62 CALM      29.95F
EAGLE          NOT AVBL
RIFLE          CLOUDY    36  29  75 CALM      29.95F
DELTA          CLOUDY    42  33  69 CALM      29.95F
NUCLA          CLOUDY    37  32  81 CALM      29.99F
$$

COZ017>023-064>068-172100-
...SOUTHWEST COLORADO...

CITY           SKY/WX    TMP DP  RH WIND       PRES   REMARKS
DURANGO        CLOUDY    39  26  59 SE8       29.95F
CORTEZ         CLOUDY    39  29  67 W14       29.95F
PAGOSA SPRINGS CLOUDY    34  23  64 SW5       29.95F WCI  30
TELLURIDE      CLOUDY    32  22  66 CALM      29.95F
WOLF CREEK PAS LGT SNOW  19  18  93 MISG      29.94F
$$

COZ009-010-012-014-032>034-037-058>063-172100-
...CENTRAL COLORADO...

CITY           SKY/WX    TMP DP  RH WIND       PRES   REMARKS
ASPEN          CLOUDY    32  23  69 NW5       29.91F WCI  27
BUENA VISTA    CLOUDY    34  16  47 CALM      29.93F
COPPER MTN     LGT SNOW  25  18  74 W10       29.93F WCI  15
BERTHOUD PASS  SNOW      14  10  85 MISG      29.94F VSB 1/4
COTTONWOOD PAS CLOUDY    32  19  59 SE3       29.93F
GUNNISON       PTSUNNY   25  16  68 CALM      29.99F
KREMMLING      CLOUDY    21  14  73 CALM      29.97F
LEADVILLE      CLOUDY    25  14  63 S3        29.91F
MONARCH PASS   LGT SNOW  19  18  93 MISG      30.04F
SALIDA         CLOUDY    34  23  63 CALM      30.00F
SUNLIGHT       HVY SNOW  27  25  93 CALM      29.95F VSB 1/4
WILKERSON PASS LGT SNOW  23  21  93 N3        29.95F VSB 3/4
$$

COZ069>075-172100-
...SAN LUIS VALLEY/SANGRE DE CRISTO MOUNTAINS...

CITY           SKY/WX    TMP DP  RH WIND       PRES   REMARKS
ALAMOSA        LGT SNOW  27  23  85 NE3       29.95F FOG
LA VETA PASS   CLOUDY    27  21  80 SW5       29.93F WCI  21
SAGUACHE       LGT SNOW  28  27  93 SE7       29.97F WCI  21
$$

COZ035-036-038>040-172100-
...NORTHERN COLORADO FRONT RANGE...

CITY           SKY/WX    TMP DP  RH WIND       PRES   REMARKS
DENVER INTL AP PTSUNNY   37  25  61 CALM      29.90F
DMNS CITY PARK   N/A     41  23  48 NE3       29.90F
AURORA         PTSUNNY   37  24  60 E5        29.91F
FRONT RANGE AP NOT AVBL
ERIE MUNI ARPT   N/A     43  26  50 MISG      29.90F
BOULDER MUN AP MOSUNNY   43  25  49 E5        29.89F
CENTENNIAL     PTSUNNY   39  23  52 CALM      29.89F
BROOMFIELD     PTSUNNY   43  25  49 NE5       29.90F
FORT COLLINS   PTSUNNY   39  27  60 CALM      29.93F
LONGMONT       PTSUNNY   44  24  45 E7        29.92F
$$

COZ041-046-047-076>085-087-088-172100-
...PIKES PEAK/PALMER DIVIDE AND SOUTHERN FOOTHILLS...

CITY           SKY/WX    TMP DP  RH WIND       PRES   REMARKS
COLO. SPRINGS  CLOUDY    34  22  61 SE6       29.92F WCI  29
A. F. ACADEMY  PTSUNNY   41  23  48 S14       29.90F
ELLICOTT       NOT AVBL
FALCON         CLOUDY    39  26  59 S3        29.93S
FORT CARSON    MOSUNNY   32  22  66 SE3       29.91F
LIMON          CLOUDY    31  23  72 CALM      29.92F
MONUMENT HILL  CLOUDY    37  21  52 E6        29.90F
TRINIDAD       CLOUDY    38  27  64 NE6       29.89F
$$

COZ042>045-048>051-090-091-172100-
...NORTHEAST COLORADO...

CITY           SKY/WX    TMP DP  RH WIND       PRES   REMARKS
GREELEY ARPT   CLOUDY    34  19  55 SE3       29.92F
AKRON          CLOUDY    22  21  96 S12       29.94F FOG     WCI  10
BURLINGTON     FOG       24  22  91 SE9       29.97F VSB 1/4 WCI  14
WRAY           CLOUDY    25  24  99 MISG      30.02F
STERLING       CLOUDY    27  27 100 CALM      29.98F
HOLYOKE        NOT AVBL
FORT MORGAN    CLOUDY    19  14  81 E3        29.96S
$$

COZ086-089-092>099-172100-
...SOUTHEAST COLORADO...

CITY           SKY/WX    TMP DP  RH WIND       PRES   REMARKS
PUEBLO         CLOUDY    32  21  64 VRB3      29.93
LA JUNTA       CLOUDY    29  23  78 NE6       29.96F WCI  23
LAMAR          CLOUDY    28  24  85 N6        29.95F WCI  22
SPRINGFIELD      N/A     36  24  62 N9        29.92F
$$



USA.gov is the U.S. government's official web portal to all federal, state and local government web resources and services.